Winfield, KS

11:49 PM CDT on May 22, 2017 (GMT -0500)
Strother

Weather History for KWLD - April, 2014

Change the Weather History Date:

Saturday, April 19, 2014

  Actual Average Record
Temperature  
Mean Temperature 64 °F -  
Max Temperature 80 °F 68 °F 80 °F (2005)
Min Temperature 48 °F 46 °F 28 °F (2013)
Degree Days  
Heating Degree Days 1    
Growing Degree Days 14 (Base 50)    
Moisture  
Dew Point 46 °F    
Average Humidity 53    
Maximum Humidity 77    
Minimum Humidity 34    
Precipitation  
Precipitation 0.00 in - - ()
Sea Level Pressure  
Sea Level Pressure 30.09 in    
Wind  
Wind Speed 11 mph (SSE)    
Max Wind Speed 23 mph    
Max Gust Speed 32 mph    
Visibility 9 miles    
Events      
Averages and records for this station are not official NWS values.
T = Trace of Precipitation, MM = Missing Value Source: NWS Daily Summary

Daily Weather History Graph

Daily Weather History Graph

Search for Another Location

Airport or City:

Trip Planner

Search our weather history database for the weather conditions in past years. The results will help you decide how hot, cold, wet, or windy it might be!

Date:

Astronomy

Apr. 19, 2014 Rise Set
Actual Time 6:48 AM CDT 8:06 PM CDT
Civil Twilight 6:21 AM CDT 8:33 PM CDT
Nautical Twilight 5:48 AM CDT 9:06 PM CDT
Astronomical Twilight 5:15 AM CDT 9:40 PM CDT
Moon No Moon Rise 10:11 AM CDT (4/19)
Length of Visible Light 14h 12m
Length of Day
13h 18m
Waning Gibbous, 78% of the Moon is Illuminated
Apr 19
Waning Gibbous
Apr 22
Last Quarter
Apr 29
New
May 6
First Quarter
May 14
Full

Hourly Weather History & Observations

Time (CDT) Temp. Dew Point Humidity Pressure Visibility Wind Dir Wind Speed Gust Speed Precip Events Conditions
12:54 AM 53.1 °F 39.9 °F 61% 30.14 in 7.0 mi SE 5.8 mph - N/A   Clear
1:54 AM 52.0 °F 41.0 °F 66% 30.13 in 5.0 mi SSE 8.1 mph - N/A   Haze
2:54 AM 52.0 °F 41.0 °F 66% 30.11 in 7.0 mi SSE 8.1 mph - N/A   Clear
3:54 AM 51.1 °F 41.0 °F 68% 30.11 in 7.0 mi South 8.1 mph - N/A   Clear
4:54 AM 48.9 °F 41.0 °F 74% 30.11 in 8.0 mi SSE 8.1 mph - N/A   Clear
5:54 AM 48.0 °F 41.0 °F 77% 30.12 in 9.0 mi SSE 5.8 mph - N/A   Clear
6:54 AM 50.0 °F 42.1 °F 74% 30.12 in 10.0 mi SSE 5.8 mph - N/A   Clear
7:54 AM 53.1 °F 44.1 °F 71% 30.14 in 10.0 mi SSE 9.2 mph - N/A   Clear
8:54 AM 60.1 °F 46.0 °F 60% 30.15 in 10.0 mi South 11.5 mph - N/A   Clear
9:54 AM 64.9 °F 46.0 °F 50% 30.15 in 10.0 mi South 17.3 mph 24.2 mph N/A   Clear
10:54 AM 70.0 °F 46.0 °F 42% 30.13 in 10.0 mi South 18.4 mph 32.2 mph N/A   Clear
11:54 AM 73.0 °F 46.0 °F 38% 30.12 in 10.0 mi South 20.7 mph 31.1 mph N/A   Clear
12:54 PM 75.0 °F 46.9 °F 37% 30.09 in 10.0 mi South 21.9 mph 32.2 mph N/A   Clear
1:54 PM 78.1 °F 48.0 °F 35% 30.07 in 10.0 mi South 23.0 mph 31.1 mph N/A   Clear
2:54 PM 79.0 °F 48.0 °F 34% 30.05 in 10.0 mi SSE 20.7 mph 26.5 mph N/A   Clear
3:54 PM 80.1 °F 50.0 °F 35% 30.03 in 10.0 mi South 15.0 mph 25.3 mph N/A   Clear
4:54 PM 77.0 °F 48.9 °F 37% 30.02 in 10.0 mi South 18.4 mph 29.9 mph N/A   Clear
5:54 PM 78.1 °F 50.0 °F 37% 30.01 in 10.0 mi South 17.3 mph 25.3 mph N/A   Clear
6:54 PM 75.9 °F 48.0 °F 37% 30.02 in 10.0 mi South 19.6 mph 26.5 mph N/A   Clear
7:54 PM 72.0 °F 48.0 °F 43% 30.03 in 10.0 mi South 12.7 mph 23.0 mph N/A   Clear
8:54 PM 66.9 °F 48.9 °F 52% 30.03 in 10.0 mi South 9.2 mph - N/A   Clear
9:54 PM 62.1 °F 48.0 °F 60% 30.05 in 10.0 mi SSE 8.1 mph - N/A   Clear
10:54 PM 62.1 °F 48.9 °F 62% 30.05 in 10.0 mi SE 8.1 mph - N/A   Clear
11:54 PM 62.1 °F 48.9 °F 62% 30.06 in 10.0 mi SE 8.1 mph - N/A   Clear